NANAKWA Weather Reports


time (UTC)temp
C
wind
direction
speed
KPH
gust
KPH
rain 1hr
cm
rain 24hr
cm
rain mn
cm
humidity
%
barometer
mb
20260506233422 0 180 17.7 20.9 0.00 0.00 0.00 1021.0
20260506230621 0 180 20.9 25.7 0.00 0.00 0.00 1021.0
20260506223820 0 180 20.9 25.7 0.00 0.00 0.00 1021.0
20260506221020 0 180 20.9 25.7 0.00 0.00 0.00 1021.0
20260506214218 0 180 24.1 27.4 0.00 0.00 0.00 1021.0
20260506211417 0 180 24.1 27.4 0.00 0.00 0.00 1021.0
20260506204617 0 157 20.9 25.7 0.00 0.00 0.00 1021.0
20260506201816 0 157 20.9 25.7 0.00 0.00 0.00 1021.0
20260506195015 0 180 17.7 24.1 0.00 0.00 0.00 1021.0
20260506192215 0 180 17.7 24.1 0.00 0.00 0.00 1021.0
20260506185414 0 180 17.7 25.7 0.00 0.00 0.00 1020.0
20260506182614 0 180 17.7 25.7 0.00 0.00 0.00 1020.0
20260506175813 0 180 17.7 24.1 0.00 0.00 0.00 1020.0
20260506173012 0 180 17.7 24.1 0.00 0.00 0.00 1020.0
20260506170212 0 202 20.9 25.7 0.00 0.00 0.00 1020.0
20260506163411 0 202 20.9 25.7 0.00 0.00 0.00 1020.0
20260506160610 0 225 24.1 29.0 0.00 0.00 0.00 1019.0
20260506153810 0 225 24.1 29.0 0.00 0.00 0.00 1019.0
20260506151009 0 225 24.1 29.0 0.00 0.00 0.00 1019.0
20260506144208 0 225 25.7 32.2 0.00 0.00 0.00 1018.0
20260506141408 0 225 25.7 32.2 0.00 0.00 0.00 1018.0
20260506134607 0 225 25.7 29.0 0.00 0.00 0.00 1017.0
20260506131806 0 225 25.7 29.0 0.00 0.00 0.00 1017.0
20260506125006 0 225 30.6 37.0 0.00 0.00 0.00 1017.0
20260506122205 0 225 30.6 37.0 0.00 0.00 0.00 1017.0
20260506115404 0 225 27.4 35.4 0.00 0.00 0.00 1016.0
20260506105304 0 225 29.0 35.4 0.00 0.00 0.00 1016.0
20260506102501 0 225 29.0 35.4 0.00 0.00 0.00 1016.0
20260506095701 0 225 32.2 40.2 0.00 0.00 0.00 1015.0
20260506092900 0 225 32.2 40.2 0.00 0.00 0.00 1015.0
20260506090059 0 225 33.8 40.2 0.00 0.00 0.00 1014.0
20260506083259 0 225 33.8 40.2 0.00 0.00 0.00 1014.0
20260506080458 0 225 38.6 45.1 0.00 0.00 0.00 1014.0
20260506070857 0 225 38.6 45.1 0.00 0.00 0.00 1014.0
20260506060754 0 225 35.4 43.5 0.00 0.00 0.00 1013.0
20260506050651 0 202 22.5 30.6 0.00 0.00 0.00 1013.0
20260506043850 0 202 22.5 30.6 0.00 0.00 0.00 1013.0
20260506041050 0 202 22.5 30.6 0.00 0.00 0.00 1013.0
20260506034249 0 225 30.6 35.4 0.00 0.00 0.00 1012.0
20260506031449 0 225 30.6 35.4 0.00 0.00 0.00 1012.0
20260506024648 0 225 27.4 33.8 0.00 0.00 0.00 1012.0
20260506021847 0 225 27.4 33.8 0.00 0.00 0.00 1012.0
20260506015047 0 202 29.0 30.6 0.00 0.00 0.00 1012.0
20260506012246 0 202 29.0 30.6 0.00 0.00 0.00 1012.0
20260506005446 0 225 25.7 29.0 0.00 0.00 0.00 1012.0
20260506002645 0 225 25.7 29.0 0.00 0.00 0.00 1012.0